Погода в Дохе

Катар     25°17′36″N   51°31′09″E
темп.,
°C
ветер,
м/с
пор.,
м/с
влажн.,
%
обл.,
%
осадки,
мм/ч
давл.,
гПа
погр.,
м
23 апреля, пт
пт2300:00+28всв22380 0.0 100911
03:00+26вюв22450 0.0 100911
06:00+26ююв11440 0.0 101011
09:00+34ююз33190 0.0 1011477
12:00+36ююв43170 0.0 10101751
15:00+36юв65160 0.0 10071306
18:00+30св44320 0.0 100866
21:00+29св33370 0.0 100926
24 апреля, сб
сб2400:00+28всв33370 0.0 100816
03:00+26юз11420 0.0 100711
06:00+27ю33360 0.0 100920
09:00+34ююз23200 0.0 1010461
12:00+37юв33172 0.0 10081452
15:00+34всв66235 0.0 1006402
18:00+30всв34355 0.0 100776
21:00+29в33355 0.0 100822
25 апреля, вс
вс2500:00+28в22335 0.0 100711
03:00+27юв22375 0.0 100711
06:00+26ю34555 0.0 100954
09:00+33ю23262 0.0 1011514
12:00+37юв44150 0.0 10091609
15:00+34в6624100 0.0 1007266
18:00+29св57463 0.0 1008131
21:00+28в34470 0.0 100843
26 апреля, пн
пн2600:00+27вюв33540 0.0 100725
03:00+26юв44554 0.0 100735
06:00+26ююв22611 0.0 100924
09:00+35ююв45194 0.0 1009651
12:00+37юв4417100 0.0 10081806
15:00+34в8731100 0.0 1006325
18:00+29всв5851100 0.0 1006139
21:00+28св455493 0.0 100775
27 апреля, вт
вт2700:00+27вюв455695 0.0 100667
03:00+27ююв61058100 0.0 1006157
06:00+28ююв4652100 0.0 1007107
09:00+34ю352556 0.0 1008667
12:00+37вюв442094 0.0 10061622
15:00+34в773088 0.0 1005274
18:00+31всв563923 0.0 1006107
21:00+30юв33356 0.0 100717